Regional Weather Roundup
Issued by NWS Sterling, VA

Home | Current Version | Previous Version | Graphics & Text | Print | Product List | Glossary On
Versions: 1 2 3 4 5 6 7 8 9 10 11 12 13 14 15 16 17 18 19 20 21 22 23 24 25 26 27 28 29 30 31 32 33 34 35 36 37 38 39 40 41 42 43 44 45 46 47 48
000
ASUS41 KLWX 300510
RWRLWX

REGIONAL WEATHER ROUNDUP
NATIONAL WEATHER SERVICE BALTIMORE MD/WASHINGTON DC
100 AM EDT SUN AUG 30 2015

Note: "FAIR" indicates few or no clouds below 12,000 feet
with no significant weather and/or obstructions to visibility.
 TC=TEMPERATURE CELSIUS

 * =Non NWS site. Station does not report precipitation (e.g. rain,
    snow, etc.), thunder, or fog.

DCZ001-MDZ009-015-VAZ040>042-051-053>054-300600-
WASHINGTON METRO

CITY           SKY/WX    TMP DP  RH WIND       PRES   REMARKS
WASHINGTON NAT MOCLDY    74  64  71 S12       30.13S
DULLES         PTCLDY    72  64  76 S7        30.12S
ANDREWS AFB    PTCLDY    71  64  79 S7        30.12F
FT BELVOIR     PTCLDY    71  64  78 SE3       30.12F
QUANTICO       PTCLDY    75  63  66 SW13G20   30.13F
COLLEGE PARK*  PTCLDY    73  63  68 S5        30.12S
LEESBURG*      CLEAR     73  68  83 S3        30.13S
MANASSAS*      PTCLDY    68  66  94 CALM      30.13S
GAITHERSBURG*  PTCLDY    72  63  73 SE5       30.17S

$$

MDZ006>007-011-014-300600-
BALTIMORE METRO

CITY           SKY/WX    TMP DP  RH WIND       PRES   REMARKS
BWI AIRPORT    PTCLDY    71  63  75 S3        30.12S
MD SCIENCE CTR   N/A     74  63  68 MISG      30.13S
MARTIN STATE   CLEAR     73  68  83 S3        30.14S
ANNAPOLIS      CLEAR     73  63  70 S8        30.12S
FORT MEADE*    CLEAR     63  61  94 CALM      30.15S

$$

MDZ012-015-019>023-300600-
MARYLAND EASTERN SHORE

CITY           SKY/WX    TMP DP  RH WIND       PRES   REMARKS
OCEAN CITY     MOCLDY    68  62  81 CALM      30.14F
SALISBURY      PTCLDY    65  62  90 CALM      30.14S
BAY BRIDGE AP*   N/A     73  63  68 S6        30.13S
CAMBRIDGE*     CLEAR     66  61  82 S3        30.13F

$$

MDZ017>025-300600-
SOUTHERN MARYLAND

CITY           SKY/WX    TMP DP  RH WIND       PRES   REMARKS
PATUXENT RIVER CLEAR     67  63  87 CALM      30.14S
ST INIGOES     PTCLDY    73  65  75 S7        30.13F
LEONARDTOWN*   PTCLDY    70  63  78 CALM      30.16S

$$

MDZ003>005-300600-
NORTH CENTRAL MARYLAND

CITY           SKY/WX    TMP DP  RH WIND       PRES   REMARKS
FREDERICK*     PTCLDY    68  66  94 CALM      30.14S
HAGERSTOWN APT PTCLDY    74  63  68 SE7       30.11S
WESTMINSTER*   PTCLDY    72  64  78 S5        30.14R

$$

MDZ501>502-300600-
WESTERN MARYLAND

CITY           SKY/WX    TMP DP  RH WIND       PRES   REMARKS
OAKLAND*       CLEAR     63  55  77 SW5       30.22S
CUMBERLAND*    CLEAR     66  63  88 CALM      30.15F

$$

VAZ025>031-300600-
SHENANDOAH VALLEY

CITY           SKY/WX    TMP DP  RH WIND       PRES   REMARKS
WINCHESTER*    PTCLDY    72  63  73 SW3       30.11S
FRONT ROYAL*   FAIR      70  63  78 S5        30.11S
LURAY*         FAIR      64  63  94 CALM      30.13F
NEW MARKET*    FAIR      65  62  89 CALM      30.13S
STAUNTON*      MOCLDY    70  61  71 CALM      30.17F
WAYNESBORO*    FAIR      68  61  77 CALM      30.16F

$$

WVZ021-048>050-054>055-300600-
EASTERN WEST VIRGINIA PANHANDLE

CITY           SKY/WX    TMP DP  RH WIND       PRES   REMARKS
MARTINSBURG    PTCLDY    65  63  93 SE3       30.11S
PETERSBURG*    CLEAR     63  62  96 CALM      30.15R

$$

VAZ036>039-050-300600-
CENTRAL FOOTHILLS

CITY           SKY/WX    TMP DP  RH WIND       PRES   REMARKS
CHARLOTTESVILL CLOUDY    70  65  84 CALM      30.13F
CULPEPER*      CLEAR     66  64  91 CALM      30.13F
ORANGE*        PTCLDY    68  64  88 CALM      30.15S
GORDONSVILLE*  MOCLDY    65  64  96 CALM      30.13F
WARRENTON*     FAIR      68  65  90 CALM      30.12F

$$

VAZ055>057-300600-
NORTH AND CENTRAL PIEDMONT

CITY           SKY/WX    TMP DP  RH WIND       PRES   REMARKS
FREDERICKSBRG* PTCLDY    72  64  77 S5        30.12F
STAFFORD*      PTCLDY    68  62  82 CALM      30.17S

$$

NCZ024-NYZ072-PAZ021-071-VAZ022-071-300600-
OTHER REGIONAL OBSERVATIONS

CITY           SKY/WX    TMP DP  RH WIND       PRES   REMARKS
NEW YORK CITY  PTCLDY    75  58  55 VRB6G18   30.14R
PHILADELPHIA   MOCLDY    74  62  66 SW6       30.13S
PITTSBURGH     PTCLDY    73  61  65 SW5       30.10S
ROANOKE        CLOUDY    70  62  76 CALM      30.18F
RICHMOND       MOCLDY    69  62  78 CALM      30.15S
RALEIGH        MOCLDY    69  62  78 CALM      30.16S

$$

ANZ530>537-300600-
MARINE OBSERVATIONS

STATION/POSITION TIME  TEMP    WIND        PRES
                       AIR SEA DIR/SP/G
                 (UTC) (F)     (DEG/KT/KT) (MB)
THOMAS PT LIGHT  0500   75     200/ 17     1020.4

$$




USA.gov is the U.S. government's official web portal to all federal, state and local government web resources and services.